Chesapeake, VA

4:15 PM EST on December 09, 2016 (GMT -0500)
Fentress Naval Air Landing Field

Weather History for KNFE - August, 2014

Change the Weather History Date:

Tuesday, August 26, 2014

  Actual Average (KNTU) Record (KNTU)
Temperature  
Mean Temperature 74 °F -  
Max Temperature 86 °F 81 °F 98 °F (2016)
Min Temperature 64 °F 67 °F 55 °F (2013)
Cooling Degree Days 9    
Growing Degree Days 24 (Base 50)    
Moisture  
Dew Point 63 °F    
Average Humidity 67    
Maximum Humidity 87    
Minimum Humidity 44    
Precipitation  
Precipitation 0.00 in - - ()
Sea Level Pressure  
Sea Level Pressure 30.11 in    
Wind  
Wind Speed 6 mph (NNE)    
Max Wind Speed 14 mph    
Max Gust Speed 20 mph    
Visibility 10 miles    
Events      
Averages and records for this station are not official NWS values.
T = Trace of Precipitation, MM = Missing Value Source: NWS Daily Summary

Daily Weather History Graph

Daily Weather History Graph

Search for Another Location

Airport or City:

Trip Planner

Search our weather history database for the weather conditions in past years. The results will help you decide how hot, cold, wet, or windy it might be!

Date:

Astronomy

Aug. 26, 2014 Rise Set
Actual Time 6:30 AM EDT 7:41 PM EDT
Civil Twilight 6:04 AM EDT 8:07 PM EDT
Nautical Twilight 5:32 AM EDT 8:39 PM EDT
Astronomical Twilight 4:58 AM EDT 9:12 PM EDT
Moon 7:26 AM EDT (8/26) 8:04 PM EDT (8/26)
Length of Visible Light 14h 03m
Length of Day
13h 10m
New Moon, 1% of the Moon is Illuminated
Aug 26
New Moon
Sep 2
First Quarter
Sep 8
Full
Sep 15
Last Quarter
Sep 24
New

Hourly Weather History & Observations

Time (EDT) Temp. Heat Index Dew Point Humidity Pressure Visibility Wind Dir Wind Speed Gust Speed Precip Events Conditions
12:56 AM 70.0 °F - 62.1 °F 76% 30.11 in 10.0 mi North 4.6 mph - N/A   Clear
1:56 AM 69.1 °F - 63.0 °F 81% 30.10 in 10.0 mi NNW 3.5 mph - N/A   Scattered Clouds
2:56 AM 70.0 °F - 64.0 °F 81% 30.10 in 10.0 mi North 4.6 mph - N/A   Scattered Clouds
3:56 AM 69.1 °F - 64.0 °F 84% 30.09 in 10.0 mi NNE 3.5 mph - N/A   Clear
4:56 AM 64.9 °F - 60.1 °F 84% 30.09 in 7.0 mi Calm Calm - N/A   Scattered Clouds
5:43 AM 66.9 °F - 63.0 °F 87% 30.09 in 10.0 mi Calm Calm - N/A   Mostly Cloudy
5:56 AM 64.9 °F - 60.1 °F 84% 30.10 in 10.0 mi Calm Calm - N/A   Scattered Clouds
6:56 AM 66.0 °F - 61.0 °F 84% 30.12 in 10.0 mi Calm Calm - N/A   Partly Cloudy
7:56 AM 73.9 °F - 66.0 °F 76% 30.13 in 10.0 mi North 4.6 mph - N/A   Clear
8:56 AM 79.0 °F - 64.0 °F 60% 30.13 in 10.0 mi NE 11.5 mph - N/A   Clear
9:56 AM 80.1 °F 81.5 °F 63.0 °F 56% 30.13 in 10.0 mi NE 12.7 mph - N/A   Partly Cloudy
10:56 AM 82.9 °F 84.6 °F 64.9 °F 54% 30.14 in 10.0 mi NE 13.8 mph - N/A   Scattered Clouds
11:56 AM 84.0 °F 84.9 °F 63.0 °F 49% 30.14 in 10.0 mi NE 12.7 mph 19.6 mph N/A   Partly Cloudy
12:56 PM 84.9 °F 85.4 °F 62.1 °F 46% 30.14 in 10.0 mi NE 12.7 mph - N/A   Clear
1:56 PM 84.9 °F 85.4 °F 62.1 °F 46% 30.12 in 10.0 mi ENE 10.4 mph - N/A   Clear
2:56 PM 84.9 °F 85.0 °F 61.0 °F 44% 30.12 in 10.0 mi NNE 11.5 mph - N/A   Clear
3:56 PM 84.0 °F 84.4 °F 61.0 °F 46% 30.10 in 10.0 mi NE 10.4 mph - N/A   Clear
4:56 PM 84.0 °F 84.4 °F 61.0 °F 46% 30.10 in 10.0 mi NNE 12.7 mph 17.3 mph N/A   Clear
5:56 PM 81.0 °F 81.6 °F 60.1 °F 49% 30.09 in 10.0 mi ENE 9.2 mph - N/A   Clear
6:56 PM 78.1 °F - 63.0 °F 60% 30.11 in 10.0 mi ENE 4.6 mph - N/A   Clear
7:56 PM 73.9 °F - 64.0 °F 71% 30.10 in 10.0 mi NNE 5.8 mph - N/A   Clear
8:56 PM 73.0 °F - 66.0 °F 79% 30.10 in 10.0 mi North 5.8 mph - N/A   Clear
9:56 PM 73.0 °F - 66.0 °F 79% 30.09 in 10.0 mi North 3.5 mph - N/A   Clear
10:56 PM 71.1 °F - 66.0 °F 84% 30.09 in 10.0 mi Calm Calm - N/A   Clear
11:56 PM 72.0 °F - 66.0 °F 81% 30.08 in 10.0 mi North 4.6 mph - N/A   Clear